Location: Big Meadows
(38.5260°N, 78.4400°W)
Time: 15:16:07
(UTC-04:00)

Amateur Radio Satellites - All Passes

Search period start: 22 May 2017 14:46
Search period end: 23 May 2017 14:46
Location: Big Meadows, 38.5260°N, 78.4400°W

Satellite Date Start Highest point End Downlink Frequencies (MHz)
Time Altitude Azimuth
VELOX 1 22 May 14:48:16 14:51:17 18° 294° (WNW) 14:54:18 145.980
BEESAT 22 May 15:01:02 15:02:51 12° 91° (E) 15:04:39 436.000
YUBILEINY 22 May 15:06:33 15:13:35 28° 277° (W) 15:20:39 435.215
Oscar 19 22 May 15:12:33 15:15:59 18° 267° (W) 15:19:27 437.125/150
BEESAT 3 22 May 15:18:50 15:22:09 24° 50° (NE) 15:25:25 437.485
MOZHAYETS 4 22 May 15:25:50 15:27:31 12° 90° (E) 15:29:11
O/OREOS (USA 219) 22 May 15:29:10 15:33:42 89° 263° (W) 15:38:11 437.305
DX 1 22 May 15:40:06 15:42:26 14° 296° (WNW) 15:44:46 434.975-435.025
UKube-1 22 May 15:41:41 15:44:44 19° 293° (WNW) 15:47:47 .
Gurwin Techsat 1B 22 May 15:52:32 15:54:55 13° 269° (W) 15:57:20 435.225
ITUPSAT 1 22 May 15:59:28 16:04:10 50° 100° (E) 16:08:50 437.325
ITAMSAT 1 22 May 16:01:29 16:06:37 72° 257° (WSW) 16:11:49 435.822/435.867
NO-84 22 May 16:08:02 16:08:57 11° 19° (NNE) 16:09:50 435.350 FM
AO-85 22 May 16:13:20 16:16:45 26° 246° (WSW) 16:20:19 145.980
AO-7 22 May 16:22:23 16:30:32 62° 256° (WSW) 16:38:46 .
BEESAT 2 22 May 16:24:46 16:28:40 42° 55° (NE) 16:32:30 435.950
BEESAT 22 May 16:36:16 16:41:01 65° 286° (WNW) 16:45:45 436.000
KKS-1 22 May 16:52:53 16:55:16 14° 93° (E) 16:57:37 437.445
DOVE 4 22 May 16:53:52 16:55:24 12° 65° (ENE) 16:56:55 437.250
BEESAT 3 22 May 16:56:14 16:59:42 28° 247° (WSW) 17:03:07 437.485
MOZHAYETS 4 22 May 17:00:27 17:05:03 62° 285° (WNW) 17:09:37
CUTE-I 22 May 17:25:10 17:28:15 16° 62° (ENE) 17:31:21 437.470
CUBESAT XI-V 22 May 17:33:46 17:38:19 50° 99° (E) 17:42:47 437.345
LilacSat-2 22 May 17:34:56 17:37:07 15° 67° (ENE) 17:39:17 437.200
STARS 22 May 17:36:34 17:39:36 18° 94° (E) 17:42:37 437.465
ITUPSAT 1 22 May 17:38:30 17:41:34 17° 296° (WNW) 17:44:36 437.325
NO-84 22 May 17:43:54 17:47:23 46° 40° (NE) 17:50:33 435.350 FM
BEESAT 2 22 May 18:03:39 18:06:02 15° 251° (WSW) 18:08:25 435.950
XW-2D 22 May 18:13:23 18:16:57 41° 74° (ENE) 18:20:34 145.860 - 145.880
XW-2B 22 May 18:21:05 18:24:44 50° 75° (ENE) 18:28:27 145.730 - 145.750
KKS-1 22 May 18:27:47 18:32:03 48° 287° (WNW) 18:36:18 437.445
DOVE 4 22 May 18:27:48 18:32:35 70° 258° (WSW) 18:37:07 437.250
XW-2C 22 May 18:34:22 18:38:09 79° 77° (ENE) 18:41:59 145.795 - 145.815
XW-2F 22 May 18:36:59 18:40:44 81° 77° (ENE) 18:44:34 145.980 - 146.000
NUDT-PHONESAT 22 May 18:50:34 18:54:16 84° 258° (WSW) 18:58:01 437.300
KAITUO 1B 22 May 18:52:31 18:56:15 78° 258° (WSW) 19:00:03 145.475/437.950
HO-68 22 May 19:00:37 19:07:10 40° 65° (ENE) 19:13:44 435.675
XW-2A 22 May 19:01:58 19:03:52 14° 68° (ENE) 19:05:46 145.665 - 145.685
CUTE-I 22 May 19:02:28 19:07:43 65° 258° (WSW) 19:13:01 437.470
CUTE 1.7 + AOD 2 22 May 19:04:49 19:08:12 23° 69° (ENE) 19:11:36 437.475
LilacSat-2 22 May 19:07:32 19:11:03 35° 262° (W) 19:14:37 437.200
STARS 22 May 19:12:00 19:16:02 36° 289° (WNW) 19:20:02 437.465
CUBESAT XI-V 22 May 19:12:27 19:15:14 16° 295° (WNW) 19:17:59 437.345
NO-84 22 May 19:22:45 19:24:29 14° 238° (WSW) 19:26:09 435.350 FM
AAUSAT CUBESAT 2 22 May 19:41:44 19:44:34 18° 67° (ENE) 19:47:24 437.432
XW-2D 22 May 19:49:56 19:51:20 12° 269° (W) 19:52:45 145.860 - 145.880
SEEDS 22 May 20:02:01 20:06:12 67° 76° (ENE) 20:10:27 437.485
Oscar 11 22 May 20:07:42 20:09:54 14° 65° (ENE) 20:12:07 .
PCSat 22 May 20:16:04 20:21:14 47° 112° (ESE) 20:26:25 145.827
STRAND 1 22 May 20:19:52 20:24:50 48° 100° (E) 20:29:48 437.568
AO-73 22 May 20:27:12 20:30:42 27° 70° (ENE) 20:34:16 145.935
CUBEBUG 2 22 May 20:30:17 20:34:24 79° 257° (WSW) 20:38:36 437.445
XW-2A 22 May 20:33:33 20:36:22 25° 263° (W) 20:39:15 145.665 - 145.685
ZACube-1 22 May 20:37:58 20:41:51 39° 72° (ENE) 20:45:50 437.345
CUTE 1.7 + AOD 2 22 May 20:40:14 20:43:53 27° 264° (W) 20:47:35 437.475
HO-68 22 May 20:48:19 20:54:50 37° 262° (W) 21:01:25 435.675
UWE-3 22 May 20:50:12 20:54:20 80° 258° (WSW) 20:58:35 435.000/436.395/437.385
AAUSAT CUBESAT 2 22 May 21:15:54 21:19:44 35° 263° (W) 21:23:36 437.432
M-CUBED/EXP-1 PRIME 22 May 21:20:34 21:23:31 29° 103° (ESE) 21:26:24 437.505
Oscar 11 22 May 21:41:22 21:45:34 51° 260° (W) 21:49:50 .
EO-88 22 May 21:51:22 21:54:41 34° 73° (ENE) 21:58:02 145.990 - 145.960
STRAND 1 22 May 22:00:00 22:03:38 20° 295° (WNW) 22:07:15 437.568
PCSat 22 May 22:00:26 22:04:50 25° 310° (NW) 22:09:16 145.827
TIGRISAT 22 May 22:01:42 22:02:27 10° 90° (E) 22:03:12 435.000
AO-73 22 May 22:03:36 22:06:54 23° 266° (W) 22:10:15 145.935
ISS 22 May 22:10:33 22:13:43 47° 136° (SE) 22:16:54 437.550
DELFI C3 22 May 22:15:08 22:19:08 77° 259° (WSW) 22:23:08 145.870
ZACube-1 22 May 22:15:52 22:18:19 15° 268° (W) 22:20:49 437.345
Tancredo 1 22 May 22:22:07 22:25:10 75° 320° (NW) 22:28:15 437.200
PRISM 22 May 22:23:41 22:27:00 24° 96° (E) 22:30:17 437.425
UNISAT 6 22 May 22:29:25 22:33:09 24° 95° (E) 22:36:55 437.425
LO-87 22 May 22:49:56 22:52:45 22° 71° (ENE) 22:55:34 145.935 - 145.965
ESTCUBE 1 22 May 22:52:39 22:55:43 18° 66° (ENE) 22:58:47 437.505/2401.250
FO-29 22 May 22:54:11 23:00:17 49° 100° (E) 23:07:09 435.910
M-CUBED/EXP-1 PRIME 22 May 22:56:09 22:57:42 13° 299° (WNW) 22:59:14 437.505
SO-50 22 May 23:08:06 23:11:53 25° 112° (ESE) 23:15:37 436.795
EO-88 22 May 23:26:45 23:28:29 13° 267° (W) 23:30:13 145.990 - 145.960
TIGRISAT 22 May 23:34:58 23:39:31 70° 285° (WNW) 23:44:08 435.000
ISS 22 May 23:47:44 23:50:22 22° 333° (NNW) 23:53:01 437.550
EO-79 22 May 23:54:29 23:56:06 12° 91° (E) 23:57:41 145.935-145.965
PRISM 22 May 23:58:53 00:02:11 24° 291° (WNW) 00:05:27 437.425
Tancredo 1 22 May 23:59:46 00:01:24 13° 339° (NNW) 00:03:02 437.200
UNISAT 6 23 May 00:05:50 00:09:49 30° 290° (WNW) 00:13:52 437.425
VELOX 1 23 May 00:06:54 00:10:41 28° 69° (ENE) 00:14:29 145.980
YUBILEINY 23 May 00:18:33 00:20:56 11° 74° (ENE) 00:23:17 435.215
LO-87 23 May 00:23:32 00:26:07 19° 265° (W) 00:28:41 145.935 - 145.965
AIST 2D 23 May 00:27:41 00:31:15 68° 101° (E) 00:34:47 435.315
ESTCUBE 1 23 May 00:27:53 00:32:10 41° 261° (W) 00:36:29 437.505/2401.250
SPROUT 23 May 00:33:53 00:38:01 55° 74° (ENE) 00:42:10 437.525
50 SAT 23 May 00:35:53 00:38:47 25° 71° (ENE) 00:41:42 437.505
FO-29 23 May 00:39:55 00:45:06 28° 293° (WNW) 00:50:47 435.910
NANOSAT C BR1 23 May 00:40:36 00:44:34 37° 98° (E) 00:48:31 145.865
POLYITAN 1 23 May 00:40:51 00:44:56 42° 99° (E) 00:48:59 437.675
SO-50 23 May 00:48:01 00:52:10 33° 308° (NW) 00:56:19 436.795
QB50P2 23 May 00:49:09 00:53:22 59° 101° (E) 00:57:35 145.880/145.840
DUCHIFAT 1 23 May 00:53:38 00:57:44 48° 99° (E) 01:01:50 145.980
DX 1 23 May 00:56:29 01:00:26 35° 71° (ENE) 01:04:24 434.975-435.025
UKube-1 23 May 00:58:14 01:01:46 25° 69° (ENE) 01:05:18 .
EO-79 23 May 01:27:59 01:32:08 52° 286° (WNW) 01:36:16 145.935-145.965
BUGSAT 1 23 May 01:29:31 01:33:20 36° 98° (E) 01:37:09 437.445
VELOX 1 23 May 01:43:30 01:47:05 24° 264° (W) 01:50:40 145.980
Oscar 19 23 May 01:45:17 01:49:01 20° 93° (E) 01:52:44 437.125/150
RS-15 23 May 02:05:12 02:15:23 34° 104° (ESE) 02:25:46 29.354- 29.394
BEESAT 23 May 02:06:20 02:08:28 13° 62° (ENE) 02:10:37 436.000
YUBILEINY 23 May 02:07:22 02:15:59 72° 93° (E) 02:24:42 435.215
50 SAT 23 May 02:09:31 02:11:39 15° 266° (W) 02:13:48 437.505
SPROUT 23 May 02:13:00 02:14:14 11° 269° (W) 02:15:29 437.525
NANOSAT C BR1 23 May 02:17:11 02:19:58 17° 293° (WNW) 02:22:45 145.865
POLYITAN 1 23 May 02:17:46 02:20:21 16° 294° (WNW) 02:22:55 437.675
QB50P2 23 May 02:27:04 02:28:38 12° 296° (WNW) 02:30:12 145.880/145.840
Gurwin Techsat 1B 23 May 02:27:17 02:31:58 31° 97° (E) 02:36:36 435.225
MOZHAYETS 4 23 May 02:27:51 02:28:31 10° 62° (ENE) 02:29:11
DUCHIFAT 1 23 May 02:30:47 02:32:59 14° 295° (WNW) 02:35:10 145.980
DX 1 23 May 02:33:37 02:36:42 19° 266° (W) 02:39:46 434.975-435.025
UKube-1 23 May 02:34:04 02:37:41 26° 264° (W) 02:41:19 .
ISS 23 May 03:04:37 03:05:37 11° 14° (NNE) 03:06:36 437.550
ITUPSAT 1 23 May 03:04:38 03:09:12 50° 72° (ENE) 03:13:50 437.325
BUGSAT 1 23 May 03:05:42 03:08:24 17° 293° (WNW) 03:11:07 437.445
Tancredo 1 23 May 03:13:42 03:15:15 13° 20° (NNE) 03:16:47 437.200
Oscar 19 23 May 03:23:37 03:28:31 45° 289° (WNW) 03:33:23 437.125/150
BEESAT 23 May 03:40:56 03:45:39 66° 258° (WSW) 03:50:24 436.000
KKS-1 23 May 03:50:37 03:52:17 12° 63° (ENE) 03:53:58 437.445
MOZHAYETS 4 23 May 04:00:23 04:04:58 79° 259° (W) 04:09:36
O/OREOS (USA 219) 23 May 04:03:27 04:05:24 13° 98° (E) 04:07:23 437.305
YUBILEINY 23 May 04:07:01 04:13:35 23° 293° (WNW) 04:20:14 435.215
Gurwin Techsat 1B 23 May 04:07:11 04:11:49 31° 292° (WNW) 04:16:26 435.225
RS-15 23 May 04:14:52 04:26:56 70° 305° (NW) 04:39:21 29.354- 29.394
ITAMSAT 1 23 May 04:15:47 04:20:46 45° 99° (E) 04:25:44 435.822/435.867
AO-7 23 May 04:25:26 04:33:31 51° 102° (ESE) 04:41:33 .
STARS 23 May 04:32:36 04:34:57 14° 65° (ENE) 04:37:18 437.465
CUBESAT XI-V 23 May 04:35:19 04:39:44 42° 72° (ENE) 04:44:11 437.345
ISS 23 May 04:39:46 04:42:51 37° 33° (NNE) 04:45:55 437.550
ITUPSAT 1 23 May 04:44:28 04:47:17 16° 268° (W) 04:50:08 437.325
Tancredo 1 23 May 04:48:25 04:51:29 70° 38° (NE) 04:54:32 437.200
AO-85 23 May 04:48:43 04:50:01 11° 109° (ESE) 04:51:19 145.980
PCSat 23 May 05:05:27 05:10:11 29° 52° (NE) 05:14:53 145.827
KKS-1 23 May 05:23:54 05:28:17 63° 259° (WSW) 05:32:42 437.445
O/OREOS (USA 219) 23 May 05:39:45 05:44:16 57° 293° (WNW) 05:48:48 437.305
ITAMSAT 1 23 May 05:56:01 05:59:53 22° 295° (WNW) 06:03:46 435.822/435.867
STARS 23 May 06:06:38 06:10:51 49° 260° (W) 06:15:06 437.465
JUGNU 23 May 06:07:33 06:09:16 11° 174° (S) 06:10:58 437.505
CUBESAT XI-V 23 May 06:14:01 06:17:15 18° 267° (W) 06:20:30 437.345
ISS 23 May 06:16:39 06:19:11 21° 228° (SW) 06:21:41 437.550
AO-7 23 May 06:18:37 06:25:59 36° 299° (WNW) 06:33:21 .
NUDT-PHONESAT 23 May 06:25:20 06:25:38 10° 91° (E) 06:25:56 437.300
AO-85 23 May 06:25:49 06:29:58 58° 303° (WNW) 06:33:56 145.980
KAITUO 1B 23 May 06:27:12 06:28:27 11° 91° (E) 06:29:41 145.475/437.950
DOVE 4 23 May 06:28:10 06:31:52 30° 97° (E) 06:35:36 437.250
RS-15 23 May 06:32:36 06:42:18 26° 333° (NNW) 06:52:05 29.354- 29.394
LilacSat-2 23 May 06:42:11 06:45:25 25° 96° (E) 06:48:38 437.200
BEESAT 3 23 May 06:43:42 06:47:36 62° 117° (ESE) 06:51:33 437.485
PCSat 23 May 06:48:38 06:53:38 38° 250° (WSW) 06:58:35 145.827
CUTE-I 23 May 07:20:50 07:26:06 57° 101° (E) 07:31:20 437.470
XW-2D 23 May 07:20:59 07:24:52 79° 101° (ESE) 07:28:42 145.860 - 145.880
XW-2B 23 May 07:28:49 07:32:42 85° 282° (WNW) 07:36:32 145.730 - 145.750
STRAND 1 23 May 07:34:13 07:39:12 60° 73° (ENE) 07:44:13 437.568
SO-50 23 May 07:40:36 07:43:43 18° 45° (NE) 07:46:48 436.795
XW-2C 23 May 07:42:21 07:46:08 55° 285° (WNW) 07:49:54 145.795 - 145.815
XW-2F 23 May 07:44:28 07:48:14 54° 285° (WNW) 07:51:58 145.980 - 146.000
SEEDS 23 May 07:49:11 07:50:54 12° 91° (E) 07:52:36 437.485
BEESAT 2 23 May 07:51:44 07:55:39 63° 303° (WNW) 07:59:39 435.950
JUGNU 23 May 07:55:25 07:57:22 12° 185° (S) 07:59:18 437.505
NUDT-PHONESAT 23 May 07:56:08 07:59:47 47° 286° (WNW) 08:03:24 437.300
XW-2A 23 May 07:56:46 07:59:14 18° 95° (E) 08:01:41 145.665 - 145.685
KAITUO 1B 23 May 07:59:02 08:02:40 43° 286° (WNW) 08:06:15 145.475/437.950
M-CUBED/EXP-1 PRIME 23 May 08:04:06 08:08:09 38° 68° (ENE) 08:11:57 437.505
DOVE 4 23 May 08:06:25 08:09:22 19° 292° (WNW) 08:12:22 437.250
LilacSat-2 23 May 08:16:35 08:19:32 21° 291° (WNW) 08:22:28 437.200
HO-68 23 May 08:16:47 08:23:42 47° 100° (E) 08:30:33 435.675
CUBEBUG 2 23 May 08:22:23 08:26:07 25° 95° (E) 08:29:55 437.445
BEESAT 3 23 May 08:23:35 08:25:35 13° 316° (NW) 08:27:36 437.485
CUTE 1.7 + AOD 2 23 May 08:25:42 08:29:55 54° 100° (E) 08:34:04 437.475
SRMSAT 23 May 08:28:31 08:29:28 10° 172° (S) 08:30:26 437.500
UWE-3 23 May 08:41:14 08:44:56 24° 95° (E) 08:48:39 435.000/436.395/437.385
RS-15 23 May 08:52:55 09:01:07 19° 9° (N) 09:09:12 29.354- 29.394
AAUSAT CUBESAT 2 23 May 08:59:06 09:02:57 37° 98° (E) 09:06:46 437.432
NO-84 23 May 09:00:29 09:02:58 15° 122° (ESE) 09:05:25 435.350 FM
CUTE-I 23 May 09:02:08 09:05:39 18° 297° (WNW) 09:09:10 437.470
FO-29 23 May 09:09:00 09:11:33 14° 61° (ENE) 09:14:05 435.910
PRISM 23 May 09:12:19 09:14:47 15° 66° (ENE) 09:17:13 437.425
STRAND 1 23 May 09:15:59 09:18:45 15° 269° (W) 09:21:31 437.568
SO-50 23 May 09:20:04 09:24:29 55° 243° (WSW) 09:28:53 436.795
SEEDS 23 May 09:22:45 09:26:51 49° 286° (WNW) 09:30:54 437.485
UNISAT 6 23 May 09:27:46 09:30:33 17° 66° (ENE) 09:33:21 437.425
XW-2A 23 May 09:29:13 09:31:54 21° 289° (WNW) 09:34:33 145.665 - 145.685
Oscar 11 23 May 09:30:03 09:33:57 31° 96° (E) 09:37:48 .
M-CUBED/EXP-1 PRIME 23 May 09:39:38 09:42:36 18° 260° (W) 09:45:29 437.505
AO-73 23 May 09:51:23 09:55:55 72° 102° (ESE) 10:00:28 145.935
DELFI C3 23 May 09:54:57 09:57:07 14° 92° (E) 09:59:16 145.870
CUBEBUG 2 23 May 09:58:44 10:02:41 30° 289° (WNW) 10:06:42 437.445
ZACube-1 23 May 10:02:59 10:07:32 76° 284° (WNW) 10:12:05 437.345
CUTE 1.7 + AOD 2 23 May 10:03:23 10:05:15 13° 295° (WNW) 10:07:05 437.475
HO-68 23 May 10:04:55 10:11:08 33° 297° (WNW) 10:17:19 435.675
SRMSAT 23 May 10:15:40 10:17:43 12° 183° (S) 10:19:46 437.500
UWE-3 23 May 10:17:21 10:21:21 31° 289° (WNW) 10:25:24 435.000/436.395/437.385
TIGRISAT 23 May 10:32:03 10:36:17 85° 77° (ENE) 10:40:36 435.000
AAUSAT CUBESAT 2 23 May 10:35:27 10:38:06 17° 293° (WNW) 10:40:44 437.432
NO-84 23 May 10:35:47 10:40:10 72° 317° (NW) 10:44:23 435.350 FM
PRISM 23 May 10:45:47 10:49:42 41° 261° (W) 10:53:38 437.425
FO-29 23 May 10:50:51 10:56:03 66° 258° (WSW) 11:01:15 435.910
EO-88 23 May 10:54:39 10:58:18 56° 100° (E) 11:01:54 145.990 - 145.960
AIST 2D 23 May 11:01:19 11:03:50 19° 70° (ENE) 11:06:22 435.315
UNISAT 6 23 May 11:02:59 11:06:57 38° 262° (W) 11:10:58 437.425
Oscar 11 23 May 11:06:34 11:09:52 21° 292° (WNW) 11:13:10 .
RS-15 23 May 11:07:04 11:18:28 41° 42° (NE) 11:29:19 29.354- 29.394
DELFI C3 23 May 11:28:23 11:32:01 36° 287° (WNW) 11:35:38 145.870
AO-73 23 May 11:30:15 11:31:31 11° 297° (WNW) 11:32:47 145.935
NANOSAT C BR1 23 May 11:31:35 11:34:54 23° 69° (ENE) 11:38:13 145.865
POLYITAN 1 23 May 11:32:13 11:35:42 26° 69° (ENE) 11:39:12 437.675
QB50P2 23 May 11:40:16 11:44:05 35° 71° (ENE) 11:47:54 145.880/145.840
DUCHIFAT 1 23 May 11:44:07 11:47:41 28° 70° (ENE) 11:51:17 145.980
LO-87 23 May 11:50:50 11:54:04 32° 98° (E) 11:57:18 145.935 - 145.965
NO-84 23 May 12:15:42 12:18:22 16° 334° (NNW) 12:20:56 435.350 FM
EO-79 23 May 12:18:23 12:22:35 88° 269° (W) 12:26:47 145.935-145.965
BUGSAT 1 23 May 12:18:24 12:21:22 20° 68° (ENE) 12:24:21 437.445
YUBILEINY 23 May 12:19:44 12:27:31 33° 72° (ENE) 12:35:14 435.215
ESTCUBE 1 23 May 12:21:30 12:25:49 44° 99° (E) 12:30:05 437.505/2401.250
SPROUT 23 May 12:23:55 12:24:27 10° 90° (E) 12:24:58 437.525
AIST 2D 23 May 12:34:07 12:36:54 22° 265° (W) 12:39:42 435.315
Oscar 19 23 May 13:00:33 13:04:49 26° 67° (ENE) 13:09:05 437.125/150
NANOSAT C BR1 23 May 13:06:58 13:10:29 26° 264° (W) 13:14:00 145.865
POLYITAN 1 23 May 13:08:04 13:11:25 23° 265° (W) 13:14:47 437.675
QB50P2 23 May 13:17:11 13:19:57 17° 266° (W) 13:22:46 145.880/145.840
RS-15 23 May 13:19:45 13:31:41 66° 247° (WSW) 13:42:58 29.354- 29.394
DUCHIFAT 1 23 May 13:20:12 13:23:20 21° 265° (W) 13:26:31 145.980
LO-87 23 May 13:25:26 13:27:12 13° 293° (WNW) 13:28:59 145.935 - 145.965
50 SAT 23 May 13:32:35 13:35:39 31° 98° (E) 13:38:41 437.505
VELOX 1 23 May 13:33:44 13:38:07 69° 102° (ESE) 13:42:28 145.980
AO-7 23 May 13:36:27 13:39:39 13° 47° (NE) 13:42:51 .
Gurwin Techsat 1B 23 May 13:46:49 13:51:47 43° 71° (ENE) 13:56:48 435.225
BUGSAT 1 23 May 13:53:09 13:56:33 27° 263° (W) 14:00:00 437.445
SPROUT 23 May 13:56:29 14:00:42 61° 285° (WNW) 14:04:55 437.525
ESTCUBE 1 23 May 13:59:21 14:02:14 17° 294° (WNW) 14:05:07 437.505/2401.250
O/OREOS (USA 219) 23 May 14:12:45 14:16:08 20° 58° (ENE) 14:19:28 437.305
YUBILEINY 23 May 14:16:07 14:24:34 52° 271° (W) 14:33:00 435.215
DX 1 23 May 14:21:29 14:25:50 82° 102° (ESE) 14:30:09 434.975-435.025
UKube-1 23 May 14:21:32 14:25:45 54° 101° (E) 14:29:57 .
